This is the latest recevied weather packets stored in our database for station/object SP5MRF. If no packets are shown the sender has not sent any weather packets the latest 10 day(s).
| Time | Temp. | Humidity | Pressure | Rain* | Wind** | Luminosity | Snow |
|---|---|---|---|---|---|---|---|
| 1787920860 | 26.11° C | 37% | 1014.4 hPa | 0 mm | - | - | - |
| 1787920378 | 26.11° C | 37% | 1014.7 hPa | 0 mm | - | - | - |
| 1787919418 | 26.11° C | 37% | 1014.8 hPa | 0 mm | - | - | - |
| 1787918939 | 25.56° C | 38% | 1015.4 hPa | 0 mm | - | - | - |
| 1787918458 | 25.56° C | 38% | 1015.5 hPa | 0 mm | - | - | - |
| 1787917979 | 25.56° C | 38% | 1015.4 hPa | 0 mm | - | - | - |
| 1787917020 | 25.56° C | 40% | 1015.9 hPa | 0 mm | - | - | - |
| 1787916540 | 25.56° C | 41% | 1015.9 hPa | 0 mm | - | - | - |
| 1787916059 | 25.56° C | 42% | 1015.9 hPa | 0 mm | - | - | - |
| 1787915579 | 25.56° C | 42% | 1016.2 hPa | 0 mm | - | - | - |
| 1787915100 | 24.44° C | 45% | 1016.4 hPa | 0 mm | - | - | - |
| 1787914139 | 24.44° C | 43% | 1016.4 hPa | 0 mm | - | - | - |
| 1787913660 | 25° C | 41% | 1016.7 hPa | 0 mm | - | - | - |
| 1787912700 | 25° C | 42% | 1016.4 hPa | 0 mm | - | - | - |
| 1787912219 | 25° C | 44% | 1016.6 hPa | 0 mm | - | - | - |
| 1787911739 | 25° C | 44% | 1016.7 hPa | 0 mm | - | - | - |
| 1787911259 | 24.44° C | 46% | 1016.7 hPa | 0 mm | - | - | - |
| 1787910779 | 23.89° C | 46% | 1016.9 hPa | 0 mm | - | - | - |
| 1787910302 | 23.33° C | 46% | 1016.9 hPa | 0 mm | - | - | - |
| 1787909819 | 23.33° C | 46% | 1017.2 hPa | 0 mm | - | - | - |
| 1787909339 | 23.33° C | 46% | 1017.5 hPa | 0 mm | - | - | - |
| 1787908859 | 23.33° C | 46% | 1017.7 hPa | 0 mm | - | - | - |
| 1787908379 | 23.33° C | 47% | 1017.8 hPa | 0 mm | - | - | - |
| 1787907421 | 22.78° C | 49% | 1017.7 hPa | 0 mm | - | - | - |
| 1787906939 | 22.78° C | 50% | 1017.9 hPa | 0 mm | - | - | - |
* Rain latest hour (hover to see other rain measurements)
** Current wind speed in m/s (hover to see current wind gust speed)